TimeCST,TemperatureF,Dew PointF,Humidity,Sea Level PressureIn,VisibilityMPH,Wind Direction,Wind SpeedMPH,Gust SpeedMPH,PrecipitationIn,Events,Conditions,WindDirDegrees,DateUTC
12:53 AM,19.0,9.0,65,30.43,10.0,NNW,12.7,20.7,N/A,,Clear,340,2013-01-21 06:53:00
1:53 AM,18.0,9.0,68,30.44,10.0,North,10.4,-,N/A,,Clear,360,2013-01-21 07:53:00
2:53 AM,16.0,9.0,74,30.45,10.0,North,4.6,-,N/A,,Clear,350,2013-01-21 08:53:00
3:53 AM,15.1,8.1,74,30.43,10.0,WSW,3.5,-,N/A,,Clear,250,2013-01-21 09:53:00
4:53 AM,14.0,8.1,77,30.43,10.0,NW,3.5,-,N/A,,Clear,310,2013-01-21 10:53:00
5:53 AM,15.1,8.1,74,30.41,10.0,Calm,Calm,-,N/A,,Partly Cloudy,0,2013-01-21 11:53:00
6:53 AM,15.1,9.0,77,30.44,10.0,North,4.6,-,N/A,,Mostly Cloudy,360,2013-01-21 12:53:00
7:53 AM,14.0,9.0,80,30.45,10.0,NW,4.6,-,N/A,,Clear,310,2013-01-21 13:53:00
8:53 AM,17.1,9.0,71,30.45,10.0,NW,6.9,-,N/A,,Overcast,310,2013-01-21 14:53:00
9:53 AM,19.0,10.0,68,30.47,10.0,NNW,8.1,-,N/A,,Overcast,340,2013-01-21 15:53:00
10:53 AM,19.0,8.1,62,30.47,10.0,North,11.5,-,N/A,,Overcast,360,2013-01-21 16:53:00
11:53 AM,19.9,5.0,52,30.47,10.0,NW,10.4,-,N/A,,Overcast,310,2013-01-21 17:53:00
12:53 PM,21.0,-0.0,40,30.44,10.0,North,12.7,17.3,N/A,,Overcast,350,2013-01-21 18:53:00
1:53 PM,21.0,-2.9,35,30.44,10.0,NW,13.8,-,N/A,,Overcast,310,2013-01-21 19:53:00
2:53 PM,19.9,-2.0,38,30.44,10.0,NNW,11.5,-,N/A,,Overcast,330,2013-01-21 20:53:00
3:53 PM,19.9,-0.9,40,30.42,10.0,NW,9.2,-,N/A,,Overcast,320,2013-01-21 21:53:00
4:53 PM,19.0,-0.9,42,30.43,10.0,WNW,9.2,-,N/A,,Overcast,300,2013-01-21 22:53:00
5:53 PM,19.0,-0.0,43,30.42,10.0,NW,5.8,-,N/A,,Overcast,310,2013-01-21 23:53:00
6:53 PM,19.0,-0.0,43,30.42,10.0,WNW,5.8,-,N/A,,Overcast,300,2013-01-22 00:53:00
7:53 PM,18.0,1.0,48,30.42,10.0,NW,4.6,-,N/A,,Overcast,310,2013-01-22 01:53:00
8:53 PM,18.0,1.9,50,30.42,10.0,NNE,6.9,-,N/A,,Overcast,30,2013-01-22 02:53:00
9:53 PM,17.1,1.9,52,30.42,10.0,NNE,4.6,-,N/A,,Overcast,20,2013-01-22 03:53:00
10:53 PM,17.1,1.9,52,30.43,10.0,NNE,5.8,-,N/A,,Overcast,30,2013-01-22 04:53:00
11:53 PM,17.1,1.9,52,30.41,10.0,NE,4.6,-,N/A,,Overcast,40,2013-01-22 05:53:00